Regional Weather Roundup
Issued by NWS Wakefield, VA

Home | Current Version | Previous Version | Graphics & Text | Print | Product List | Glossary On
Versions: 1 2 3 4 5 6 7 8 9 10 11 12 13 14 15 16 17 18 19 20 21 22 23 24 25 26 27 28 29 30 31 32 33 34 35 36 37 38 39 40 41 42 43 44 45 46 47 48 49 50
000
ASUS41 KAKQ 211110
RWRAKQ

REGIONAL WEATHER ROUNDUP
NATIONAL WEATHER SERVICE WAKEFIELD VA
700 AM EDT TUE OCT 21 2014

Note: "fair" indicates few or no clouds below 12,000 feet with no
significant weather and/or obstructions to visibility. * = Denotes
station may not report precipitation (e.g., rain,snow,etc.),
thunder or fog.

VAZ042-051-052>054-056-211200-
NORTHERN VIRGINIA

CITY           SKY/WX    TMP DP  RH WIND       PRES   REMARKS
WASH NATIONAL  PTCLDY    55  48  77 CALM      29.87S
DULLES         PTCLDY    45  44  97 CALM      29.86S FOG
FORT BELVOIR   PTCLDY    46  46 100 CALM      29.87S FOG
QUANTICO       MOCLDY    52  48  86 N6        29.87S
FREDERICKSBRG* CLOUDY    54  50  86 CALM      29.86S
STAFFORD*      MOCLDY    47  47 100 CALM      29.90S
WARRENTON      FOG       42  42 100 CALM      29.86S VSB 1
CULPEPER*      FOG       45  45 100 CALM      29.87S VSB 1/2
MANASSAS*      NOT AVBL
LEESBURG*      CLEAR     46  46 100 CALM      29.87S FOG
WINCHESTER     PTCLDY    50  43  76 CALM      29.86R
FRONT ROYAL*   SUNNY     50  46  87 S6        29.85S
LURAY*         SUNNY     50  50 100 S3        29.87R
$$

VAZ048-049-060>072-079>083-211200-
CENTRAL AND SOUTH CENTRAL VIRGINIA...AND NORTH CENTRAL NORTH CAROLINA

CITY           SKY/WX    TMP DP  RH WIND       PRES   REMARKS
RICHMOND       MOCLDY    54  48  80 S3        29.88S
CHESTERFIELD*  MOSUNNY  N/A N/A N/A CALM      29.89S
PETERSBURG*    MOCLDY    49  47  95 CALM      29.89S
HANOVER        CLOUDY    52  49  89 CALM      29.89S
TAPPAHANNOCK*  PTCLDY    54  46  74 CALM      29.88S
CHARLOTTSVILLE PTCLDY    51  47  86 CALM      29.88R
ORANGE*        CLEAR     46  45  93 CALM      29.88S
LOUISA*        PTCLDY    50  46  87 CALM      29.87R
FARMVILLE*     CLEAR     48  48 100 SW3       29.88R
CREWE*         SUNNY     49  46  89 CALM      29.89S
FORT PICKETT*  SUNNY     51  48  90 W3        29.90R
LUNENBURG*     SUNNY     51  49  94 CALM      29.90R
SOUTH HILL*    CLEAR     54  54 100 CALM      29.95S
LAWRENCEVILLE* MOSUNNY   50  48  93 CALM      29.90R
ROANOKE RAPIDS SUNNY     52  50  93 SW3       29.92R
RALEIGH        PTCLDY    53  49  86 CALM      29.93R
$$

VAZ088>098-211200-
SOUTHEAST VIRGINIA

CITY           SKY/WX    TMP DP  RH WIND       PRES   REMARKS
NORFOLK        CLOUDY    58  54  86 SW8       29.91R
VIRGINIA BEACH CLOUDY    60  55  83 SW5       29.91R
NORFOLK NAVAL  CLOUDY    61  55  81 SE3       29.91S
WEST POINT*    PTCLDY    59  53  80 SW3       29.89S
NEWPORT NEWS   CLOUDY    60  54  80 CALM      29.90S
LANGLEY AFB    CLOUDY    59  59  99 S3        29.90S
FORT EUSTIS    MOCLDY    59  59 100 S3        29.88S
WILLIAMSBURG*  PTCLDY    57  55  94 S3        29.90S
HR EXEC AP*    CLOUDY    55  54  94 CALM      29.93S
FRANKLIN*      MOCLDY    55  55 100 S5        29.91S
WAKEFIELD      PTCLDY    54  51  90 CALM      29.89S
$$

VAZ020-022-025-037-045-211200-
WEST CENTRAL AND SOUTHWEST VIRGINIA

CITY           SKY/WX    TMP DP  RH WIND       PRES   REMARKS
STAUNTON*      CLOUDY    48  44  85 CALM      29.91R
HOT SPRINGS VA CLOUDY    45  45  99 W12       29.89S
LYNCHBURG      CLEAR     44  43  96 S5        29.91S
DANVILLE       PTCLDY    48  46  93 CALM      29.92R
SOUTH BOSTON*  NOT AVBL
MARTINSVILLE   PTCLDY    43  43 100 CALM      29.95R
ROANOKE        PTCLDY    52  45  77 CALM      29.94S
BLACKSBURG     PTCLDY    45  45 100 CALM      29.96R FOG
DUBLIN*        PTCLDY    50  49  99 SW8       29.94F
MARION*        CLOUDY    51  49  92 W10       29.97S
HILLSVILLE*    PTCLDY    50  46  84 W7        29.95S
RICHLANDS*     CLOUDY    53  49  87 W8        29.96S
WISE*          CLOUDY    50  50 100 SW7       29.97S
ABINGDON*      CLOUDY    52  52 100 W5        29.97S FOG
$$

MDZ021>025-VAZ099-100-211200-
SOUTHERN MARYLAND AND THE DELMARVA PENINSULA

CITY           SKY/WX    TMP DP  RH WIND       PRES   REMARKS
PATUXENT RIVER MOCLDY    58  48  69 SW7       29.86S
BAY BRIDGE APT   N/A     55  46  71 CALM      29.86F
LEONARDTOWN    CLOUDY    54  46  76 CALM      29.88S
DOVER          CLOUDY    53  51  92 S3        29.84S
GEORGETOWN     MOCLDY    56  52  86 S5        29.88S
EASTON         CLEAR     54  54 100 CALM      29.90S
CAMBRIDGE      PTCLDY    54  50  87 CALM      29.87R
SALISBURY      PTCLDY    54  50  86 CALM      29.87F
OCEAN CITY     MOCLDY    54  52  93 CALM      29.88S
WALLOPS ISLAND MOCLDY    61  57  87 SW8       29.89R
ACCOMACK*      LGT RAIN  57  54  88 S6        29.89S
$$

NCZ012>017-030>032-211200-
EASTERN NORTH CAROLINA

CITY           SKY/WX    TMP DP  RH WIND       PRES   REMARKS
ELIZABETH CITY CLOUDY    62  58  86 SW3       29.92S
AHOSKIE*       MOCLDY    54  53  96 S3        29.92S
EDENTON*       CLOUDY    60  58  94 SW5       29.93S
CURRITUCK*     CLOUDY    60  58  93 CALM      29.92S
KILL DEVIL HLS CLOUDY    64  62  94 CALM      29.91F
MANTEO         CLOUDY    64  61  90 S6        29.93F
CAPE HATTERAS  MOCLDY    65  63  93 N5        29.93S
TARBORO*       PTSUNNY   54  53  96 CALM      29.93S
GOLDSBORO      MOCLDY    56  56  98 CALM      29.92R
WASHINGTON     MOCLDY    56  54  95 CALM      29.93S
GREENVILLE     PTCLDY    55  55 100 CALM      29.95S
NEW BERN       MOCLDY    55  52  89 CALM      29.94S
WILMINGTON     PTCLDY    55  53  93 CALM      29.94R
$$

VAZ048-211200-
ELSEWHERE

CITY           SKY/WX    TMP DP  RH WIND       PRES   REMARKS
HARRISBURG PA  MOCLDY    49  48  97 CALM      29.85S FOG
BALTIMORE      PTCLDY    47  46  97 CALM      29.86S
ANNAPOLIS      PTCLDY    55  47  74 CALM      29.86R
ANDREWS AFB    PTCLDY    49  46  88 W5        29.86S
WILMINGTON DE  MOCLDY    51  49  92 CALM      29.87F
PHILADELPHIA   MOCLDY    54  49  83 CALM      29.87S
WILDWOOD NJ*   MOCLDY    54  48  82 SE3       29.88S
ATLANTIC CITY  MOCLDY    47  45  93 CALM      29.88F
HENDERSON NC   CLEAR     49  47  93 SW5       29.91S
GREENSBORO     PTCLDY    50  49  96 CALM      29.92S
ROCKY MOUNT    PTCLDY    53  52  96 CALM      29.92R
FAYETTEVILLE   CLEAR     54  53  97 SW5       29.93R
CHARLOTTE      CLEAR     49  47  93 CALM      29.95S
$$

VAZ100-211200-
MARINE

STATION/POSITION TIME  TEMP    WIND        PRES    WAVE   SWELL
                       AIR SEA DIR/SP/G            HT/PER HT/PER
                 (UTC) (F)     (DEG/KT/KT) (MB)    (FT/S) (FT/S)
44066 TX TWR #4  1100   65 66  200/  6/  8 1012.6F   4/ 6   3/ 6
CAPE MAY NJ      1100   61 66  160/  5/  7 1011.1R
LEWES DE         1100   58 62  200/  5/  7 1011.2S
15NM E FENWICK I 1100   65 66  230/  8/  8 1011.6F   3/ 6   3/ 6
OCEAN-CITY-INLET 1100   61 64  230/  3/  4 1011.2F
WACHAPREAGUE VA  1100   60 61  220/  3/  4 1012.2R
THOMAS POINT MD  1100   58 64  260/  9/  9 1012.1F
GOOSES REEF MD   1100   60     250/ 12/ 14 1011.5F
COVE POINT MD    1100   59     250/  8/ 11 1011.0F
SOLOMONS ISLAND  1100      65                N/A
BISHOPS HEAD MD  1100   63 57  220/  9/ 11 1010.7F
PINEY POINT MD   1100          270/  6/  8   N/A
POTOMAC MD       1100   62     250/ 10/ 14 1010.6R
CAMBRIDGE MD     1100   57 63  240/  3/  3 1011.1R
LEWISETTA VA     1100   58 62  240/  6/  7 1011.0S
RAPPAHANNOCK LGT 1100          190/ 12/ 13 1012.5R
STINGRAY PT      1100   62     210/ 12/ 12 1012.4S
YORK RVR RNG VA  1100   62     230/  9/ 10 1011.7S
YORKTOWN VA      1100   59 67  210/  9/ 10 1011.7S
JAMESTOWN VA     1100   57     200/  4/  6   N/A
DOMINION TERM VA 1100   60     180/  6/  7 1012.5S
KIPTOPEKE VA     1100      69  230/  9/ 11   N/A
CHES BAY BRIDGE  1100   60 68  200/ 10/ 11 1012.0F
CHESAPEAKE LGHT  1000   65     230/ 15/ 15 1013.1R
WILLOUBY STN VA  1100   61     190/  8/  9 1011.3S
S CRANEY ISL VA  1100          170/  6/  8 1012.5R
CAPE HENRY BUOY  1100      68                N/A     2/11   2/11
1ST LANDING BUOY 1100   61     200/ 12/ 14 1012.3R
CAPE CHARLES BUO 1100      68                N/A     2/12   2/12
64NM E OF VA BCH 1100   66 69  210/  6/  8 1012.9F   3/ 5   3/ 5
DUCK PIER NC     1100   64 69  180/  7/  9 1012.3F
44100 DUCK FRF   1100      71                N/A     3/ 5   2/13
44056 DUCK FRF   1100                        N/A     2/12   2/12
OREGON INLET NC  1100   65 67  180/  7/  9 1013.5R
HATTERAS NC      1100   67 71  290/  4/  4 1013.8R
DIAMOND SHLS NC  1100   67     330/  6/ 10 1013.0F   4/ 5   3/ 5
CAPE LOOKOUT NC  1000   68     300/  7/  8 1013.6R
$$


USA.gov is the U.S. government's official web portal to all federal, state and local government web resources and services.